Location: Rayville (historical)
(39.9992°N, 99.6815°W)
Time: 22:55:49
(UTC+00:00)

STARLINK-77 - Pass Details

Date: 18 February 2020
Orbit: 529 x 530 km, 53.0° (Epoch: 05 April)

Event Time Altitude Azimuth Distance (km) Brightness Sun altitude
Rises 01:17:30 0° 215° (SW) 2,651 7.7 -12.3°
Reaches altitude 10° 01:19:44 10° 210° (SSW) 1,765 6.7 -12.7°
Maximum altitude 01:23:37 50° 135° (SE) 680 3.8 -13.5°
Enters shadow 01:25:53 23° 69° (ENE) 1,171 4.7 -13.9°
